WY6Y-13 Weather Reports


Display with metric or nautical units.
time (UTC)temp
F
wind
direction
speed
MPH
gust
MPH
rain 1hr
in
rain 24hr
in
rain mn
in
humidity
%
barometer
mb
20260906202517 107 67 5.0 5.0 0.00 0.00 0.00 31 1012.9
20260906201515 106 0 0.0 0.0 0.00 0.00 0.00 31 1013.2
20260906200514 107 0 0.0 0.0 0.00 0.00 0.00 32 1013.5
20260906195513 106 0 0.0 0.0 0.00 0.00 0.00 33 1013.5
20260906194512 105 0 0.0 0.0 0.00 0.00 0.00 34 1013.5
20260906193510 104 0 0.0 0.0 0.00 0.00 0.00 35 1013.9
20260906192509 102 0 0.0 0.0 0.00 0.00 0.00 37 1013.9
20260906191508 104 0 0.0 0.0 0.00 0.00 0.00 36 1013.9
20260906190507 106 0 0.0 0.0 0.00 0.00 0.00 33 1014.2
20260906185505 106 0 0.0 0.0 0.00 0.00 0.00 32 1014.2
20260906184504 106 0 0.0 0.0 0.00 0.00 0.00 35 1014.2
20260906183503 105 0 0.0 0.0 0.00 0.00 0.00 34 1014.6
20260906182502 104 0 0.0 0.0 0.00 0.00 0.00 36 1014.6
20260906181500 104 0 0.0 0.0 0.00 0.00 0.00 36 1014.9
20260906180458 104 0 0.0 0.0 0.00 0.00 0.00 36 1014.9
20260906175457 104 0 0.0 0.0 0.00 0.00 0.00 38 1015.2
20260906174455 104 0 0.0 0.0 0.00 0.00 0.00 37 1015.6
20260906173454 103 0 0.0 0.0 0.00 0.00 0.00 39 1015.6
20260906172453 102 180 4.0 4.0 0.00 0.00 0.00 40 1015.6
20260906171452 100 0 0.0 0.0 0.00 0.00 0.00 41 1015.6
20260906170450 98 0 0.0 0.0 0.00 0.00 0.00 44 1015.9
20260906165449 98 0 0.0 0.0 0.00 0.00 0.00 44 1015.9
20260906164448 96 0 0.0 0.0 0.00 0.00 0.00 46 1015.9
20260906163447 98 0 0.0 0.0 0.00 0.00 0.00 46 1015.9
20260906162446 99 0 0.0 0.0 0.00 0.00 0.00 44 1015.9
20260906161444 100 0 0.0 0.0 0.00 0.00 0.00 43 1015.9
20260906160443 98 0 0.0 0.0 0.00 0.00 0.00 44 1015.9
20260906155442 98 0 0.0 0.0 0.00 0.00 0.00 44 1015.6
20260906154440 96 0 0.0 0.0 0.00 0.00 0.00 47 1015.6
20260906153439 95 0 0.0 0.0 0.00 0.00 0.00 47 1015.6
20260906152438 96 0 0.0 0.0 0.00 0.00 0.00 48 1015.6
20260906151437 92 0 0.0 0.0 0.00 0.00 0.00 52 1015.6
20260906150435 91 0 0.0 0.0 0.00 0.00 0.00 54 1015.6
20260906145434 90 0 0.0 0.0 0.00 0.00 0.00 55 1015.6
20260906144433 91 0 0.0 0.0 0.00 0.00 0.00 55 1015.6
20260906143432 90 0 0.0 0.0 0.00 0.00 0.00 56 1015.6
20260906142430 86 0 0.0 0.0 0.00 0.00 0.00 64 1015.6
20260906141429 85 0 0.0 0.0 0.00 0.00 0.00 63 1015.6
20260906140428 84 0 0.0 0.0 0.00 0.00 0.00 64 1015.2
20260906135426 82 0 0.0 0.0 0.00 0.00 0.00 67 1015.2
20260906134425 80 0 0.0 0.0 0.00 0.00 0.00 71 1015.2
20260906133424 79 0 0.0 0.0 0.00 0.00 0.00 73 1015.2
20260906132423 78 0 0.0 0.0 0.00 0.00 0.00 74 1015.2
20260906131421 78 0 0.0 0.0 0.00 0.00 0.00 74 1014.9
20260906130420 77 0 0.0 0.0 0.00 0.00 0.00 74 1014.9
20260906125418 77 0 0.0 0.0 0.00 0.00 0.00 76 1014.6
20260906124417 76 0 0.0 0.0 0.00 0.00 0.00 77 1014.6
20260906123416 76 0 0.0 0.0 0.00 0.00 0.00 77 1014.6
20260906122415 76 0 0.0 0.0 0.00 0.00 0.00 77 1014.6
20260906121414 76 0 0.0 0.0 0.00 0.00 0.00 75 1014.2
20260906120412 76 0 0.0 0.0 0.00 0.00 0.00 75 1014.2
20260906115411 76 0 0.0 0.0 0.00 0.00 0.00 76 1013.9
20260906114410 76 0 0.0 0.0 0.00 0.00 0.00 76 1013.9
20260906113408 76 0 0.0 0.0 0.00 0.00 0.00 76 1013.9
20260906112407 76 0 0.0 0.0 0.00 0.00 0.00 76 1013.9
20260906111406 76 0 0.0 0.0 0.00 0.00 0.00 74 1013.9
20260906110404 76 0 0.0 0.0 0.00 0.00 0.00 75 1013.5
20260906105403 77 0 0.0 0.0 0.00 0.00 0.00 74 1013.5
20260906104402 77 0 0.0 0.0 0.00 0.00 0.00 74 1013.5
20260906103401 77 0 0.0 0.0 0.00 0.00 0.00 73 1013.5
20260906102359 77 0 0.0 0.0 0.00 0.00 0.00 73 1013.5
20260906101358 77 0 0.0 0.0 0.00 0.00 0.00 73 1013.5
20260906100357 77 0 0.0 0.0 0.00 0.00 0.00 73 1013.5
20260906095356 77 0 0.0 0.0 0.00 0.00 0.00 74 1013.5
20260906094355 77 0 0.0 0.0 0.00 0.00 0.00 72 1013.5
20260906093353 77 0 0.0 0.0 0.00 0.00 0.00 72 1013.5
20260906092352 77 0 0.0 0.0 0.00 0.00 0.00 72 1013.5
20260906091351 77 0 0.0 0.0 0.00 0.00 0.00 72 1013.5
20260906090350 78 0 0.0 0.0 0.00 0.00 0.00 72 1013.5
20260906085348 78 0 0.0 0.0 0.00 0.00 0.00 71 1013.5
20260906084347 78 0 0.0 0.0 0.00 0.00 0.00 71 1013.2
20260906083346 78 0 0.0 0.0 0.00 0.00 0.00 70 1013.2
20260906082345 78 0 0.0 0.0 0.00 0.00 0.00 70 1013.5
20260906081343 79 0 0.0 0.0 0.00 0.00 0.00 69 1013.5
20260906080342 79 0 0.0 0.0 0.00 0.00 0.00 70 1013.2
20260906075341 79 0 0.0 0.0 0.00 0.00 0.00 69 1013.2
20260906074339 79 0 0.0 0.0 0.00 0.00 0.00 68 1013.5
20260906073338 80 0 0.0 0.0 0.00 0.00 0.00 68 1013.5
20260906072337 80 0 0.0 0.0 0.00 0.00 0.00 67 1013.5
20260906071335 80 0 0.0 0.0 0.00 0.00 0.00 65 1013.5
20260906070334 81 0 0.0 0.0 0.00 0.00 0.00 65 1013.5
20260906065333 81 0 0.0 0.0 0.00 0.00 0.00 64 1013.5
20260906064332 82 0 0.0 0.0 0.00 0.00 0.00 62 1013.5
20260906063330 82 0 0.0 0.0 0.00 0.00 0.00 62 1013.5
20260906062329 83 0 0.0 0.0 0.00 0.00 0.00 62 1013.5
20260906061328 83 0 0.0 0.0 0.00 0.00 0.00 61 1013.5
20260906060327 84 0 0.0 0.0 0.00 0.00 0.00 59 1013.2
20260906055325 84 0 0.0 0.0 0.00 0.00 0.00 59 1013.2
20260906054324 84 0 0.0 0.0 0.00 0.00 0.00 59 1013.2
20260906053323 84 0 0.0 0.0 0.00 0.00 0.00 58 1013.2
20260906052322 84 0 0.0 0.0 0.00 0.00 0.00 59 1013.2
20260906051320 82 0 0.0 0.0 0.00 0.00 0.00 62 1012.9
20260906050319 83 0 0.0 0.0 0.00 0.00 0.00 63 1013.2
20260906045318 83 0 0.0 0.0 0.00 0.00 0.00 63 1013.2
20260906044316 83 0 0.0 0.0 0.00 0.00 0.00 61 1013.2
20260906043315 83 0 0.0 0.0 0.00 0.00 0.00 60 1013.2
20260906042314 84 0 0.0 0.0 0.00 0.00 0.00 60 1013.2
20260906041312 84 0 0.0 0.0 0.00 0.00 0.00 61 1013.2
20260906040311 84 0 0.0 0.0 0.00 0.00 0.00 59 1013.2
20260906035310 85 0 0.0 0.0 0.00 0.00 0.00 58 1013.2
20260906034308 85 0 0.0 0.0 0.00 0.00 0.00 58 1013.2
20260906033307 86 0 0.0 0.0 0.00 0.00 0.00 58 1013.2
20260906032306 86 0 0.0 0.0 0.00 0.00 0.00 56 1013.2
20260906031305 86 0 0.0 0.0 0.00 0.00 0.00 56 1013.2
20260906030303 87 0 0.0 0.0 0.00 0.00 0.00 54 1012.9
20260906025306 87 0 0.0 0.0 0.00 0.00 0.00 54 1012.9
20260906024301 87 0 0.0 0.0 0.00 0.00 0.00 53 1012.9
20260906023259 88 0 0.0 0.0 0.00 0.00 0.00 52 1012.5
20260906022258 88 0 0.0 0.0 0.00 0.00 0.00 52 1012.5
20260906021256 89 0 0.0 0.0 0.00 0.00 0.00 50 1012.5
20260906020255 90 0 0.0 0.0 0.00 0.00 0.00 49 1012.5
20260906015254 91 0 0.0 0.0 0.00 0.00 0.00 48 1012.2
20260906014252 92 0 0.0 0.0 0.00 0.00 0.00 46 1012.2
20260906013251 93 0 0.0 0.0 0.00 0.00 0.00 45 1011.9
20260906012250 94 0 0.0 0.0 0.00 0.00 0.00 44 1011.9
20260906011248 94 0 0.0 0.0 0.00 0.00 0.00 43 1011.9
20260906010247 95 0 0.0 0.0 0.00 0.00 0.00 42 1011.9
20260906005245 96 0 0.0 0.0 0.00 0.00 0.00 41 1011.9
20260906004244 97 0 0.0 0.0 0.00 0.00 0.00 40 1011.5
20260906003243 97 0 0.0 0.0 0.00 0.00 0.00 40 1011.9
20260906002241 98 0 0.0 0.0 0.00 0.00 0.00 39 1011.9
20260906001240 99 0 0.0 0.0 0.00 0.00 0.00 39 1011.5
20260906000241 99 0 0.0 0.0 0.00 0.00 0.00 38 1011.5
20260905235237 100 0 0.0 0.0 0.00 0.00 0.00 37 1011.5
20260905234236 100 0 0.0 0.0 0.00 0.00 0.00 37 1011.2
20260905233235 101 0 0.0 0.0 0.00 0.00 0.00 36 1011.2
20260905232233 102 0 0.0 0.0 0.00 0.00 0.00 36 1011.2
20260905231232 103 157 2.0 2.0 0.00 0.00 0.00 34 1011.2
20260905230231 104 0 0.0 0.0 0.00 0.00 0.00 34 1011.2
20260905225229 103 0 0.0 0.0 0.00 0.00 0.00 35 1011.2
20260905224228 102 0 0.0 0.0 0.00 0.00 0.00 34 1011.2
20260905223227 103 225 4.0 4.0 0.00 0.00 0.00 34 1011.5
20260905222225 103 0 0.0 0.0 0.00 0.00 0.00 35 1011.5
20260905221224 103 0 0.0 0.0 0.00 0.00 0.00 34 1011.5
20260905220223 103 0 0.0 0.0 0.00 0.00 0.00 34 1011.9
20260905215222 104 67 1.0 1.0 0.00 0.00 0.00 34 1011.9
20260905214220 103 0 0.0 0.0 0.00 0.00 0.00 34 1011.9
20260905213219 104 90 5.0 5.0 0.00 0.00 0.00 34 1011.9
20260905212218 104 0 0.0 0.0 0.00 0.00 0.00 34 1012.2
20260905211216 103 0 0.0 0.0 0.00 0.00 0.00 36 1012.2
20260905210215 104 0 0.0 0.0 0.00 0.00 0.00 34 1012.5
20260905205214 104 0 0.0 0.0 0.00 0.00 0.00 35 1012.5
20260905204212 104 0 0.0 0.0 0.00 0.00 0.00 34 1012.9
20260905203211 104 135 1.0 1.0 0.00 0.00 0.00 35 1012.9